Погода в Алексеевке

Погода в Алексеевке : погода сейчас, прогноз погоды и архив. Всё, что Вы хотите узнать о погоде в Алексеевке!

Поиск расширенной информации на нашем сайте:

Другие новости

Новости СМИ2

Главная страница сайта

Новости сайта

03.07.2017

Напоминаем, что на нашем специализированном сайте Метеоцентр.Азия вы можете получить высокодетализированные автоматические прогнозы погоды по пунктам России, СНГ и мира в авиационном формате (включающие направление и скорость ветра, видимость, явления погоды, количество и форму облачности, нижнюю и верхнюю границу облачности).


Погода в Алексеевке - сегодня

Время (UTC), дата Ветер
(°,м/с) 
Видим.   Явления Облачность Т
(°С)
Тd
(°С)
f(%) Тe
(°С)
Pmin
(гПа)
dP
(гПа)
Po
(мм)
O2
(г/м3)
Тmin Tmax R s Состояние
почвы
12 20.10.17 250 (З) 20000 м  {ливн. осадки}  8/0 средняя 
[Ac lent]
+7.5 -0.3 58 +6  1010.7  1.3  724  284           
15 20.10.17 210 (ЮЗ) н/о    9/3 600 м средняя 
[Sc|Ac lent]
+6 +1.6 73 +4  1011.7  0.7  724  285    +10.2     
18 20.10.17 250 (З) н/о    10/6 600 м средняя 
[Sc|Ac lent]
+6.1 +3 80 +5  1011  -0.6  724  285    +10.2     
21 20.10.17 220 (ЮЗ) н/о    10/10 600 м 
[Sc]
+5.1 +1.9 80 +4  1010.8  -0.4  723  286           
00 21.10.17 220 (ЮЗ) н/о    10/10 600 м 
[Sc]
+4.7 +3 89 +4  1010.2  -0.6  723  286           
03 21.10.17 210 (ЮЗ) 20000 м    9/9 300 м 
[St]
+3.9 +1.4 84 +2  1010.4  0.1  723  287           
06 21.10.17 240 (ЮЗ) 20000 м    8/3 600 м верхняя 
[Sc|Ci fib]
+5.3 +1.1 74 +4  1010.6  0.4  723  286  +3.8         
09 21.10.17 250 (З) 20000 м    8/4 600 м средняя, верхняя 
[Sc|Ac trans|Ci fib]
+6.3 -3 51 +4  1009.9  -0.6  723  285           
12 21.10.17 250 (З) 20000 м    8/3 600 м средняя, верхняя 
[Sc|Ac lent|Ci fib]
+5.4 -3.6 52 +5  1010.3  0.3  723  286           
15 21.10.17 230 (ЮЗ) н/о    6/1 1000 м верхняя 
[Sc|Ci fib]
+0.5 -3 77 +1  1011.6  0.4  723  291    +7.9       
18 21.10.17 200 (Ю) н/о    4/0 средняя 
[Ac trans]
+0.5 -4 72 1011.6  723  291    +7.9       
21 21.10.17 210 (ЮЗ) н/о    4/0 средняя 
[Ac trans]
-1.1 -3.2 86 -1  1012.3  0.4  724  293           
00 22.10.17 230 (ЮЗ) н/о    ясно 
-2.3 -3.9 89 -3  1013.4  0.8  724  295           
03 22.10.17 250 (З) 20000 м    ясно 
-3.5 -5.2 88 -3  1015.8  2.1  726  297           
06 22.10.17 280 (З) 20000 м    6/6 600 м 
[Sc diur, vesp]
-0.3 -6.4 63 -2  1017.4  2.1  728  294  -4         
09 22.10.17 240 (ЮЗ) 20000 м    ясно 
+1.3 -9.7 44 -1  1018.2  728  293           
12 22.10.17 230 (ЮЗ) 20000 м    1/0 верхняя 
[Ci fib]
+0.5 -9.9 46 1019.7  1.3  729  294           
15 22.10.17 тихо ()   н/о    ясно 
-5 -8.2 78 -5  1022.6  1.8  731  301    +2.3       
18 22.10.17 тихо ()   н/о    ясно 
-6 -9 79 -6  1023.4  0.6  731  302    +2.3       
21 22.10.17 тихо ()   н/о    ясно 
-8.2 -10 87 -8  1023.9  0.1  731  305           
00 23.10.17 тихо ()   н/о    ясно 
-8.8 -10.3 89 -9  1023.4  -0.6  731  305           
03 23.10.17 090 (В) 20000 м    10/0 средняя 
[Ac und]
-4.1 -6.3 85 -4  1021.5  -1  730  299           
06 23.10.17 070 (В) 20000 м    10/0 средняя 
[Ac und]
-0.5 -4.5 74 -1  1018.4  -2.3  728  294  -8.8         
09 23.10.17 090 (В) 20000 м    10/0 средняя 
[Ac und]
+2.1 -2.1 74 +1  1015  -2.8  726  291           
12 23.10.17 080 (В) 20000 м    10/0 средняя 
[Ac und]
+3.5 -1.7 69 +2  1011.9  -2.7  724  288           
Время (UTC), дата Ветер
(°,м/с) 
Видим.   Явления Облачность Т
(°С)
Тd
(°С)
f(%) Тe
(°С)
Pmin
(гПа)
dP
(гПа)
Po
(мм)
O2
(г/м3)
Тmin Tmax R s Состояние
почвы

Для получения пояснительной информации подведите курсор к названию столбца.

ПОГОДА в Алексеевке - архив

Всё, что Вы хотите узнать о погоде в Алексеевке - удобно и подробно!

Выберите нужную дату (начиная с 1 января 2015* года) и нажмите кнопку "Найти".
Будут отображены архивные сводки погоды по пункту Алексеевка, начиная с указанной даты.


Отображать данные в формате CSV (для использования в таблицах Excel)


Внимание! Наш архив погоды предназначен исключительно для личного некоммерческого использования в познавательных целях. Если Вам необходимы официальные справки о состоянии погоды (для производственных, юридических, коммерческих и т.п. целей), обращайтесь в органы Росгидромета.

*Примечание: данная дата относится к архиву по метеостанциям СССР (Россия, СНГ, Балтия).
Архив по метеостанциям Зарубежной Европы и Азии (кроме Китая) хранится 10 дней, по другим регионам земного шара (Китай, Африка, Америка, Австралия, Океания) - 1 день.

Алексеевка - район местоположения метеостанции


Название, широта, долгота, высота метеостанции:
Алексеевка 52°ш. 70.9°д. 384 м над ур. моря [Казахстан]

Дополнительная информация

В oтличие oт бoльшинства пoгoдных сайтoв мы публикуем пoдрoбную метеoинфoрмацию в детальнoм прoфессиoнальнoм фoрмате.

Характеристики температуры и влажнoсти вoздуха измеряются на высoте 2 м в тени вдали oт зданий и деревьев.
Скoрoсть ветра измеряется на высoте 10 м (на урoвне рoста челoвека скoрoсть ветра ниже в 1.5-2 раза). Если метеoстанция нахoдится в гoрoде или в лесу, тo скoрoсть ветра занижена на 2-4 м/с пo сравнению с oткрытым местoм. Скoрoсть ветра над акватoриями крупных рек и oзёр, а также на вершинах хoлмoв на 2-5 м/с выше, чем в oбычных услoвиях.
Атмoсфернoе давление в разных тoчках местнoсти мoжет значительнo oтличаться oт давления на метеoстанции, в зависимoсти oт услoвий рельефа (при пoдъёме на 10 м давление пoнижается примернo на 1 мм рт.ст.).